FW7886 Weather Reports


time (UTC)temp
C
wind
direction
speed
KPH
gust
KPH
rain 1hr
cm
rain 24hr
cm
rain mn
cm
humidity
%
barometer
mb
20260502223432 23 136 3.2 11.3 0.00 1.47 0.71 43 1015.5
20260502222926 23 156 3.2 9.7 0.00 1.50 0.71 43 1015.5
20260502222420 23 135 3.2 9.7 0.00 1.52 0.71 42 1015.6
20260502221914 24 172 3.2 12.9 0.00 1.52 0.71 43 1015.5
20260502221637 24 151 3.2 12.9 0.00 1.55 0.71 44 1015.5
20260502220902 24 127 3.2 8.0 0.00 1.57 0.71 42 1015.4
20260502220356 24 139 3.2 8.0 0.00 1.57 0.71 43 1015.5
20260502215850 24 142 3.2 12.9 0.00 1.57 0.71 43 1015.4
20260502215344 24 130 3.2 12.9 0.00 1.57 0.71 43 1015.4
20260502214839 24 137 3.2 11.3 0.00 1.57 0.71 43 1015.4
20260502214332 24 148 3.2 11.3 0.00 1.57 0.71 43 1015.3
20260502213826 24 151 1.6 11.3 0.00 1.60 0.71 46 1015.4
20260502213320 24 133 1.6 9.7 0.00 1.63 0.71 47 1015.4
20260502212814 24 147 3.2 9.7 0.00 1.68 0.71 46 1015.3
20260502212308 24 140 3.2 8.0 0.00 1.75 0.71 44 1015.4
20260502211815 24 174 3.2 9.7 0.00 1.98 0.71 48 1015.5
20260502211256 24 149 3.2 12.9 0.00 2.26 0.71 46 1015.4
20260502210750 24 154 3.2 14.5 0.00 2.39 0.71 46 1015.5
20260502210244 24 146 3.2 14.5 0.00 2.46 0.71 46 1015.5
20260502205738 24 144 3.2 12.9 0.00 2.54 0.71 44 1015.6
20260502205232 24 113 3.2 8.0 0.00 2.59 0.71 46 1015.6
20260502204726 24 160 3.2 16.1 0.00 2.64 0.71 48 1015.5
20260502204706 24 89 3.2 16.1 0.00 2.69 0.71 47 1015.6
20260502203716 24 144 3.2 8.0 0.00 2.72 0.71 48 1015.6
20260502203216 24 138 3.2 9.7 0.00 2.77 0.71 46 1015.8
20260502203202 24 147 3.2 9.7 0.00 2.84 0.71 48 1015.7
20260502202215 24 134 3.2 11.3 0.00 2.97 0.71 48 1015.8
20260502201715 23 132 4.8 19.3 0.00 3.10 0.71 47 1015.9
20260502201212 23 152 4.8 19.3 0.00 3.20 0.71 45 1015.9
20260502200929 24 130 3.2 12.9 0.00 3.33 0.71 48 1016.1
20260502200210 23 142 3.2 12.9 0.00 3.43 0.71 52 1016.1
20260502195710 23 158 3.2 12.9 0.00 3.51 0.71 49 1016.0
20260502195209 23 135 3.2 11.3 0.00 3.58 0.71 49 1016.1
20260502194710 23 43 3.2 11.3 0.00 3.71 0.71 48 1016.1
20260502194211 23 151 3.2 11.3 0.00 3.91 0.71 48 1016.2
20260502193705 23 133 3.2 14.5 0.00 3.94 0.71 51 1016.3
20260502193207 23 134 3.2 14.5 0.00 4.01 0.71 51 1016.2
20260502192933 23 142 3.2 11.3 0.00 4.09 0.71 53 1016.2
20260502192207 23 130 3.2 12.9 0.00 4.27 0.71 54 1016.3
20260502191705 23 154 3.2 12.9 0.00 4.50 0.71 55 1016.2
20260502191208 23 129 3.2 14.5 0.00 4.65 0.71 54 1016.1
20260502190703 23 135 3.2 14.5 0.00 4.75 0.71 56 1016.2
20260502190203 23 176 3.2 12.9 0.00 4.88 0.71 54 1016.0
20260502185702 23 106 4.8 12.9 0.00 4.95 0.71 52 1016.1
20260502185203 23 117 3.2 9.7 0.00 5.11 0.71 52 1016.0
20260502184700 23 135 3.2 9.7 0.00 5.28 0.71 56 1016.1
20260502184158 23 134 3.2 9.7 0.00 5.71 0.71 59 1016.2
20260502183659 23 134 3.2 9.7 0.00 5.99 0.71 57 1016.1
20260502183158 23 171 3.2 8.0 0.00 6.27 0.71 61 1016.2
20260502182915 23 103 3.2 8.0 0.00 6.45 0.71 61 1016.0
20260502182643 23 112 3.2 8.0 0.00 6.58 0.71 61 1016.1
20260502181655 23 45 3.2 9.7 0.00 6.73 0.71 63 1016.2
20260502181155 23 132 3.2 9.7 0.00 6.86 0.71 63 1016.3
20260502180657 23 149 3.2 9.7 0.00 6.93 0.71 62 1016.3
20260502180152 22 134 3.2 8.0 0.00 7.06 0.71 65 1016.3
20260502180140 22 118 3.2 12.9 0.00 7.14 0.71 65 1016.3
20260502170415 22 139 3.2 11.3 0.00 7.21 0.71 65 1017.2
20260502164151 22 156 1.6 8.0 0.00 7.21 0.71 71 1017.2
20260502163653 22 144 3.2 9.7 0.00 7.21 0.71 68 1017.1
20260502163147 22 140 3.2 12.9 0.00 7.21 0.71 69 1017.2
20260502162905 21 141 3.2 12.9 0.00 7.21 0.71 69 1017.1
20260502162139 21 139 3.2 11.3 0.00 7.21 0.71 70 1017.3
20260502161637 21 137 3.2 11.3 0.00 7.21 0.71 71 1017.3
20260502161136 21 149 1.6 8.0 0.00 7.21 0.71 70 1017.3
20260502160635 21 151 1.6 8.0 0.00 7.21 0.71 68 1017.4
20260502160135 21 142 1.6 6.4 0.00 7.21 0.71 73 1017.4
20260502152135 20 139 1.6 8.0 0.00 7.21 0.71 75 1017.1
20260502151632 20 130 3.2 11.3 0.00 7.21 0.71 76 1017.1
20260502151129 20 98 3.2 11.3 0.00 7.21 0.71 76 1017.0
20260502150629 19 152 3.2 12.9 0.00 7.21 0.71 78 1016.9
20260502150131 19 149 3.2 9.7 0.00 7.21 0.71 79 1016.9
20260502130413 14 145 1.6 4.8 0.00 7.21 0.71 94 1015.7
20260502123338 12 147 0.0 4.8 0.00 7.21 0.71 97 1015.2
20260502122325 12 140 0.0 3.2 0.00 7.21 0.71 98 1015.3
20260502122046 12 145 0.0 1.6 0.00 7.21 0.71 98 1015.0
20260502121313 12 146 0.0 1.6 0.00 7.21 0.71 98 1014.8
20260502121029 12 145 0.0 1.6 0.00 7.21 0.71 98 1014.8
20260502120522 12 145 0.0 3.2 0.00 7.21 0.71 98 1014.5
20260502115755 12 145 0.0 3.2 0.00 7.21 0.71 98 1014.6
20260502115249 12 146 0.0 1.6 0.00 7.21 0.71 98 1014.6
20260502114742 12 145 0.0 3.2 0.00 7.21 0.71 98 1014.6
20260502114237 12 156 0.0 3.2 0.00 7.21 0.71 98 1014.3
20260502113731 12 142 0.0 1.6 0.00 7.21 0.71 98 1014.4
20260502113225 12 142 0.0 3.2 0.00 7.21 0.71 98 1014.3
20260502112719 12 142 0.0 3.2 0.00 7.21 0.71 98 1014.2
20260502112213 12 152 0.0 4.8 0.00 7.21 0.71 98 1014.2
20260502111707 12 150 0.0 4.8 0.00 7.21 0.71 98 1014.1
20260502111201 12 145 0.0 4.8 0.00 7.21 0.71 98 1013.9
20260502110655 12 134 0.0 4.8 0.00 7.21 0.71 98 1014.0
20260502110149 12 153 0.0 4.8 0.00 7.21 0.71 98 1013.6
20260502105644 12 156 0.0 6.4 0.00 7.21 0.71 98 1013.7
20260502105137 12 153 1.6 6.4 0.00 7.21 0.71 98 1013.7
20260502104631 12 147 1.6 4.8 0.00 7.21 0.71 98 1013.7
20260502104126 12 135 1.6 4.8 0.00 7.21 0.71 98 1013.7
20260502103619 12 142 0.0 4.8 0.00 7.21 0.71 98 1013.7
20260502103114 12 146 0.0 4.8 0.00 7.21 0.71 98 1013.8
20260502102607 12 134 1.6 4.8 0.00 7.21 0.71 98 1013.6
20260502102324 12 147 0.0 3.2 0.00 7.21 0.71 98 1013.6
20260502101555 12 151 0.0 3.2 0.00 7.21 0.71 98 1013.5
20260502101050 11 154 0.0 4.8 0.00 7.21 0.71 98 1013.6
20260502100544 11 149 1.6 6.4 0.00 7.21 0.71 98 1013.5
20260502091530 11 161 3.2 12.9 0.05 7.24 0.71 99 1013.0
20260502091032 11 137 1.6 9.7 0.05 7.24 0.71 99 1013.0
20260502090532 11 205 3.2 11.3 0.05 7.24 0.71 99 1012.8
20260502071525 12 163 3.2 9.7 0.23 7.14 0.61 99 1013.1
20260502071022 12 132 1.6 9.7 0.23 7.09 0.58 99 1013.0
20260502070516 12 151 0.0 4.8 0.25 7.09 0.56 99 1013.3
20260502070228 12 149 1.6 4.8 0.25 7.06 0.53 99 1013.1
20260502065504 12 132 1.6 4.8 0.25 7.06 0.53 99 1012.9
20260502065222 12 144 0.0 3.2 0.23 7.04 0.51 99 1013.3
20260502064713 12 137 0.0 3.2 0.20 7.01 0.48 99 1013.4
20260502063946 12 131 0.0 3.2 0.20 6.99 0.46 99 1013.0
20260502063441 12 130 0.0 3.2 0.20 6.96 0.43 99 1013.2
20260502062935 12 134 1.6 6.4 0.28 6.96 0.43 99 1013.1
20260502062428 12 152 1.6 6.4 0.33 6.96 0.43 99 1012.6
20260502061923 12 143 0.0 8.0 0.36 6.93 0.41 99 1012.6
20260502061904 12 157 0.0 8.0 0.36 6.91 0.38 99 1012.8
20260502060911 12 133 0.0 4.8 0.33 6.86 0.33 99 1013.6
20260502060404 12 156 0.0 3.2 0.30 6.83 0.30 99 1013.7
20260502055859 12 148 0.0 4.8 0.28 6.81 0.28 99 1013.7
20260502055615 12 131 0.0 4.8 0.30 6.81 0.28 99 1013.5
20260502055112 12 134 1.6 9.7 0.36 6.81 0.28 99 1013.5
20260502054340 12 146 1.6 9.7 0.41 6.78 0.25 99 1013.4
20260502053835 12 149 1.6 8.0 0.43 6.78 0.25 99 1013.4
20260502053328 12 144 1.6 8.0 0.38 6.73 0.23 99 1013.3
20260502052822 12 130 1.6 12.9 0.33 6.68 0.15 99 1013.1
20260502052803 12 130 1.6 12.9 0.25 6.60 0.10 99 1013.6
20260502052029 12 135 1.6 6.4 0.23 6.58 0.05 99 1013.2
20260502051309 12 125 1.6 4.8 0.20 6.55 0.03 99 1013.4
20260502050810 12 144 1.6 6.4 0.18 6.53 0.00 99 1013.2
20260502050308 12 139 1.6 6.4 0.18 6.53 0.00 99 1013.4
20260502045808 12 156 1.6 8.0 0.20 6.53 6.53 99 1013.2
20260502045306 12 139 1.6 9.7 0.20 6.50 6.50 99 1013.0
20260502044805 12 132 1.6 9.7 0.13 6.43 6.45 99 1013.2
20260502044305 12 149 1.6 6.4 0.08 6.38 6.38 99 1013.2
20260502044240 12 130 1.6 8.0 0.05 6.35 6.35 99 1013.2
20260502043528 12 141 3.2 11.3 0.05 6.35 6.35 99 1012.7
20260502042804 12 140 1.6 11.3 0.05 6.35 6.35 99 1012.5
20260502042305 12 143 1.6 9.7 0.05 6.35 6.35 99 1012.4
20260502042021 12 175 1.6 9.7 0.05 6.35 6.35 99 1012.5
20260502041303 12 155 1.6 8.0 0.05 6.35 6.35 99 1012.5
20260502040804 12 158 1.6 6.4 0.05 6.35 6.35 99 1012.6
20260502040305 12 151 1.6 9.7 0.05 6.35 6.35 99 1012.7
20260502035802 12 182 1.6 9.7 0.03 6.32 6.32 99 1012.8
20260502035306 12 121 1.6 8.0 0.00 6.30 6.30 99 1012.8
20260502035025 12 142 1.6 9.7 0.00 6.30 6.30 99 1012.7
20260502034304 12 132 3.2 9.7 0.00 6.30 6.30 99 1012.5
20260502033803 12 130 3.2 9.7 0.00 6.30 6.30 99 1012.6
20260502033532 12 142 1.6 9.7 0.00 6.30 6.30 99 1012.5
20260502032804 12 157 1.6 8.0 0.00 6.30 6.30 99 1012.5
20260502032536 12 164 1.6 8.0 0.00 6.30 6.30 99 1012.7
20260502032028 12 125 1.6 9.7 0.00 6.30 6.30 99 1012.6
20260502031302 12 139 1.6 9.7 0.00 6.30 6.30 99 1012.4
20260502030802 12 167 1.6 6.4 0.00 6.30 6.30 99 1012.5
20260502030302 12 146 1.6 8.0 0.00 6.30 6.30 99 1012.5
20260502030024 12 134 1.6 8.0 0.00 6.30 6.30 99 1012.4
20260502025306 12 151 1.6 6.4 0.00 6.30 6.30 99 1012.5
20260502024803 12 143 1.6 6.4 0.00 6.30 6.30 99 1012.2
20260502024303 12 115 1.6 6.4 0.00 6.30 6.30 99 1012.5
20260502023802 13 163 1.6 4.8 0.00 6.30 6.30 99 1012.4
20260502023303 12 149 1.6 11.3 0.00 6.30 6.30 99 1012.4
20260502022803 13 146 1.6 11.3 0.00 6.30 6.30 99 1012.4
20260502022530 13 157 1.6 11.3 0.00 6.30 6.30 99 1012.3
20260502022028 13 115 1.6 9.7 0.00 6.30 6.30 99 1012.2
20260502021303 13 155 1.6 9.7 0.00 6.30 6.30 99 1012.2
20260502020800 13 142 1.6 8.0 0.00 6.30 6.30 99 1011.9
20260502020301 13 159 1.6 8.0 0.00 6.30 6.30 99 1011.8
20260502020238 13 137 1.6 6.4 0.00 6.30 6.30 99 1011.6
20260502015301 13 149 1.6 8.0 0.00 6.30 6.30 99 1011.4
20260502014756 13 125 1.6 8.0 0.00 6.30 6.30 99 1011.2
20260502014525 13 135 0.0 4.8 0.00 6.30 6.30 99 1011.2
20260502013758 13 137 1.6 11.3 0.03 6.30 6.30 99 1011.5
20260502013257 13 152 1.6 11.3 0.03 6.30 6.30 99 1011.3
20260502012756 13 140 1.6 8.0 0.08 6.30 6.30 99 1011.0
20260502012256 13 151 1.6 11.3 0.08 6.30 6.30 99 1011.2
20260502011756 13 149 1.6 11.3 0.08 6.30 6.30 99 1011.1
20260502011250 13 48 1.6 8.0 0.08 6.30 6.30 99 1010.2
20260502010744 13 160 1.6 9.7 0.10 6.30 6.30 99 1009.9
20260502010238 13 135 3.2 9.7 0.10 6.30 6.30 99 1010.0
20260502005732 13 248 3.2 12.9 0.10 6.30 6.30 99 1009.5
20260502005226 13 166 3.2 12.9 0.10 6.30 6.30 99 1009.1
20260502004947 13 195 1.6 9.7 0.15 6.30 6.30 99 1009.2
20260502004214 13 139 1.6 8.0 0.18 6.30 6.30 99 1009.7
20260502003708 13 266 1.6 8.0 0.25 6.27 6.27 99 1010.2
20260502003202 13 157 0.0 3.2 0.30 6.25 6.27 99 1010.7
20260502002656 13 153 1.6 6.4 0.36 6.22 6.22 99 1010.7
20260502002415 13 130 1.6 8.0 0.41 6.22 6.22 99 1010.7
20260502001905 13 130 1.6 8.0 0.41 6.22 6.22 99 1010.8
20260502001136 13 139 1.6 6.4 0.41 6.22 6.22 99 1010.6
20260502000630 13 135 0.0 6.4 0.38 6.20 6.20 99 1011.2
20260502000124 13 145 1.6 8.0 0.41 6.20 6.20 99 1011.3
20260501235618 12 146 1.6 8.0 0.41 6.20 6.20 99 1011.4
20260501235112 12 150 0.0 8.0 0.41 6.20 6.20 99 1011.8
20260501235054 12 145 1.6 8.0 0.36 6.15 6.15 99 1012.1
20260501234100 12 164 1.6 8.0 0.28 6.07 6.10 99 1011.9
20260501233554 12 149 1.6 11.3 0.23 5.99 6.02 99 1011.5
20260501233048 12 153 1.6 11.3 0.18 5.92 5.92 99 1011.2
20260501232542 13 144 1.6 8.0 0.10 5.84 5.87 99 1011.4
20260501232305 13 139 3.2 14.5 0.10 5.82 5.82 99 1010.9
20260501231530 13 149 3.2 14.5 0.13 5.84 5.82 99 1010.8
20260501231024 13 130 3.2 14.5 0.13 5.87 5.82 99 1011.1
20260501230619 13 152 1.6 6.4 0.13 5.84 5.79 99 1011.2
20260501230601 13 194 1.6 11.3 0.15 5.87 5.82 99 1011.4
20260501230449 13 135 1.6 8.0 0.13 5.84 5.79 99 1011.2
20260501230340 13 137 1.6 8.0 0.13 5.84 5.79 99 1010.6
20260501230226 13 136 1.6 6.4 0.13 5.84 5.79 99 1010.6
20260501224454 13 152 1.6 6.4 0.13 5.84 5.79 99 1011.2
20260501223948 13 137 1.6 12.9 0.15 5.84 5.79 99 1011.0